INTELSAT 804

operational
NORAD ID: 25110 Int'l Des: 1997-083 Owner: INTEL Country: I-INT
HEOCIRCULARGSO

INTELSAT 804について

説明を読み込み中...

リアルタイム位置

3D地球を読み込み中...

次回通過

高度履歴

Altitude vs Time

uPlot chart will show altitude changes over time

軌道要素

1 25110U 97083A 26062.12059343 -.00000073 00000-0 00000+0 0 9999
2 25110 13.0444 18.4158 0008751 8.8514 344.9976 1.00259878103265
Epoch: Mar 3, 2026 • Age: 35 hours

現在のステータス

高度 35803.6 km
速度 3.07 km/s
衛星直下点 11.00°N, 168.68°E
打ち上げ日 Dec 22, 1997
運用期間 28.1 years
タイプ communications

技術仕様

分類 Payload
質量 3455.00 kg
乾燥質量 1601.00 kg
総質量 3455.00 kg
長さ 5.20 m
直径 2.20 m
スパン 10.80 m
形状 Box + 2 Pan
製造者 LMTEW
バスタイプ AS7000
フェーズステータス Renamed
所有者/国 INTEL/I-INT

大規模コンステレーション

Loading constellations...